www.pogodaiklimat.ru

Погода и климат >> Архив погоды >> Австралия >> Северная территория >> Тиндал


ПОГОДА в Тиндале

  • Прогноз погоды в Тиндале
  • Монитор погоды в Тиндале

АРХИВ ПОГОДЫ в Тиндале

Время (UTC), дата Ветер
(напр.,м/с)
 
Видим.   Явления Облачность Т
(С)
Тd
(С)
f
(%)
Тe
(С)
Тes
(С)
Комфортность P
(гПа)
Po
(гПа)
Тmin
(С)
Tmax
(С)
R
(мм)
R24
(мм)
S
(см)
11 14.04 штиль 0 н/о н/о +25.4 +19.3 69 +31 +31 очень
душно
1010.9 995.6
12 14.04 штиль 0 н/о н/о +23.8 +20.1 80 +29 +29 душно 1011.3 996.0
14 14.04 штиль 0 н/о н/о +23.0 +19.6 81 +30 +30 очень
душно
1011.3 996.0 +35.0
15 14.04 штиль 0 н/о н/о +22.4 +19.4 83 +28 +28 душно 1011.3 996.0
17 14.04 Ю 2 н/о 10/0
[]
+21.6 +19.2 86 +27 +27 душно 1011.1 995.8
18 14.04 Ю 1 н/о н/о +22.2 +19.0 82 +28 +28 душно 1011.2 995.9
20 14.04 штиль 0 н/о н/о +21.1 +18.9 87 +25 +25 комфорт 1011.5 996.2
21 14.04 штиль 0 н/о н/о +20.5 +18.4 88 +24 +24 комфорт 1011.9 996.6
23 14.04 СВ 2 н/о н/о +26.7 +20.3 68 +33 +33 очень
душно
1013.3 998.0
00 15.04 С 3 н/о н/о +28.7 +20.4 61 +35 +35 очень
душно
1013.7 998.4
02 15.04 СВ 2 н/о 5/5 1500 м
[]
+31.6 +17.5 43 +36 +36 очень
душно
1012.8 997.5 +20.3
03 15.04 ЮВ 3 н/о н/о +31.7 +16.4 40 +35 +35 очень
душно
1011.4 996.1
05 15.04 ЮВ 5 н/о 1/0 2000 м
[]
+32.7 +14.8 34 +34 +34 очень
жарко
1009.5 994.3
06 15.04 Ю 3 н/о н/о +34.0 +15.5 33 +36 +36 душно 1008.9 993.7
08 15.04 В 4 н/о н/о +32.6 +14.7 34 +34 +34 очень
жарко
1009.1 993.9
09 15.04 В 3 н/о н/о +30.1 +15.8 42 +33 +33 душно 1009.4 994.2
11 15.04 штиль 0 н/о н/о +26.6 +17.7 58 +31 +31 душно 1010.9 995.6
12 15.04 штиль 0 н/о н/о +25.3 +18.7 67 +30 +30 душно 1011.7 996.4
14 15.04 СВ 3 н/о н/о +24.2 +17.9 68 +28 +28 душно 1011.9 996.6 +34.4
15 15.04 СВ 4 н/о н/о +25.0 +16.7 60 +29 +29 душно 1012.0 996.7
17 15.04 В 3 н/о н/о +23.8 +16.3 63 +27 +27 жарко 1011.5 996.2
18 15.04 ЮВ 2 н/о н/о +21.3 +17.3 78 +25 +25 комфорт 1011.4 996.1
20 15.04 ЮВ 3 н/о н/о +19.7 +17.1 85 +23 +23 комфорт 1011.7 996.4
21 15.04 ЮВ 3 н/о н/о +19.4 +17.0 86 +22 +22 комфорт 1012.5 997.2
23 15.04 штиль 0 н/о н/о +24.9 +18.8 69 +30 +30 душно 1013.6 998.3
00 16.04 С 3 н/о н/о +29.2 +17.1 48 +33 +33 очень
душно
1014.1 998.8
02 16.04 В 5 н/о н/о +33.1 +13.7 31 +34 +34 очень
жарко
1012.9 997.6 +19.2
03 16.04 В 7 н/о н/о +33.6 +14.1 31 +35 +35 душно 1012.0 996.7
05 16.04 В 6 н/о 1/0 2000 м
[]
+34.3 +14.7 31 +36 +36 душно 1009.8 994.6
06 16.04 ЮВ 4 н/о н/о +33.8 +14.8 32 +35 +35 очень
жарко
1009.3 994.1
08 16.04 В 4 н/о н/о +33.2 +14.8 33 +35 +35 душно 1009.5 994.3
09 16.04 СВ 3 н/о н/о +30.7 +16.3 42 +34 +34 очень
душно
1010.0 994.8
11 16.04 штиль 0 н/о н/о +26.0 +17.9 61 +30 +30 душно 1011.4 996.1
12 16.04 штиль 0 н/о н/о +25.0 +18.9 69 +30 +30 душно 1012.1 996.8
14 16.04 штиль 0 н/о н/о +23.0 +19.0 78 +29 +29 очень
душно
1012.2 996.9 +34.9
15 16.04 Ю 2 н/о н/о +22.2 +18.8 81 +28 +28 душно 1012.2 996.9
17 16.04 ЮВ 3 н/о н/о +21.7 +18.7 83 +27 +27 душно 1011.7 996.4
18 16.04 ЮВ 2 н/о н/о +21.6 +18.8 84 +26 +26 душно 1011.7 996.4
20 16.04 ЮВ 3 н/о н/о +21.2 +18.9 87 +26 +26 душно 1012.3 997.0
21 16.04 ЮВ 1 н/о н/о +21.3 +19.2 88 +26 +26 душно 1012.7 997.4
23 16.04 С 3 н/о н/о +27.3 +20.9 68 +34 +34 очень
душно
1014.1 998.8
00 17.04 С 3 н/о н/о +29.2 +20.9 61 +36 +36 очень
душно
1014.3 999.0
02 17.04 С 3 н/о 3/3 1500 м
[]
+31.9 +18.8 46 +37 +37 очень
душно
1013.4 998.1 +21.1
03 17.04 В 4 н/о н/о +32.5 +17.2 40 +36 +36 очень
душно
1012.2 996.9
05 17.04 ЮВ 4 н/о 1/0 2000 м
[]
+33.8 +16.2 35 +36 +36 очень
душно
1010.3 995.1
06 17.04 В 5 н/о н/о +34.9 +15.7 32 +37 +37 очень
душно
1009.6 994.4
08 17.04 ЮВ 4 н/о н/о +33.4 +16.3 36 +36 +36 очень
душно
1009.8 994.6
09 17.04 В 3 н/о н/о +30.7 +16.7 43 +34 +34 очень
душно
1010.2 995.0
11 17.04 ЮВ 1 н/о н/о +25.6 +19.7 70 +31 +31 очень
душно
1011.5 996.2
12 17.04 штиль 0 н/о н/о +24.4 +19.5 74 +30 +30 очень
душно
1012.4 997.1
14 17.04 СВ 2 н/о н/о +24.0 +17.7 68 +28 +28 душно 1012.6 997.3 +35.1
15 17.04 В 3 н/о н/о +25.2 +16.6 59 +29 +29 душно 1012.7 997.4
17 17.04 Ю 2 н/о н/о +21.5 +17.7 79 +26 +26 душно 1012.0 996.7
18 17.04 ЮВ 3 н/о н/о +20.4 +17.4 83 +24 +24 комфорт 1011.7 996.4
20 17.04 ЮВ 2 н/о н/о +19.7 +17.1 85 +23 +23 комфорт 1012.0 996.7
21 17.04 ЮВ 3 н/о н/о +19.4 +17.0 86 +22 +22 комфорт 1012.4 997.1
23 17.04 ЮВ 2 н/о 1/1 <50 м
[]
+24.8 +18.7 69 +30 +30 душно 1013.6 998.3
00 18.04 СЗ 1 н/о н/о +28.4 +19.1 57 +34 +34 очень
душно
1014.0 998.7
02 18.04 ЮВ 4 н/о н/о +32.2 +17.7 42 +36 +36 очень
душно
1013.3 998.0 +19.4
03 18.04 ЮВ 6 н/о н/о +33.0 +16.4 37 +36 +36 очень
душно
1012.2 996.9
05 18.04 В 9 н/о 1/0 2000 м
[]
+34.3 +13.7 29 +35 +35 очень
жарко
1010.4 995.2
06 18.04 В 5 н/о н/о +34.2 +15.1 32 +36 +36 душно 1009.9 994.7
08 18.04 В 5 н/о н/о +33.4 +14.5 32 +35 +35 душно 1010.0 994.8
09 18.04 В 3 н/о н/о +30.7 +15.5 40 +33 +33 душно 1010.4 995.2
11 18.04 СВ 3 н/о н/о +26.8 +17.3 56 +31 +31 душно 1011.5 996.2
12 18.04 СВ 3 н/о н/о +26.2 +17.0 57 +30 +30 душно 1012.2 996.9
14 18.04 Ю 1 н/о н/о +23.6 +18.5 73 +28 +28 душно 1012.9 997.6 +35.4
15 18.04 В 3 н/о н/о +25.0 +17.5 63 +29 +29 душно 1012.9 997.6
17 18.04 В 3 н/о н/о +25.0 +18.4 67 +30 +30 душно 1012.2 996.9
18 18.04 Ю 3 н/о н/о +22.0 +18.4 80 +27 +27 душно 1012.1 996.8
20 18.04 ЮВ 2 н/о н/о +20.3 +18.2 88 +24 +24 комфорт 1012.4 997.1
21 18.04 ЮВ 2 н/о н/о +19.8 +18.1 90 +23 +23 комфорт 1012.9 997.6
23 18.04 ЮВ 3 н/о н/о +24.6 +19.2 72 +30 +30 очень
душно
1014.1 998.8
00 19.04 В 5 н/о н/о +29.1 +17.9 51 +34 +34 очень
душно
1014.3 999.0
02 19.04 В 8 н/о н/о +32.9 +15.0 34 +35 +35 душно 1013.3 998.0 +19.6
03 19.04 В 6 н/о н/о +33.4 +16.3 36 +36 +36 очень
душно
1012.1 996.8
05 19.04 В 7 н/о н/о +34.0 +13.5 29 +35 +35 очень
жарко
1009.7 994.5
06 19.04 В 6 н/о н/о +33.9 +14.9 32 +36 +36 душно 1009.1 993.9
08 19.04 В 5 н/о н/о +32.9 +14.5 33 +34 +34 очень
жарко
1008.9 993.7
09 19.04 В 3 н/о н/о +30.1 +15.8 42 +33 +33 душно 1009.1 993.9
11 19.04 ЮВ 2 н/о н/о +24.7 +19.1 71 +30 +30 очень
душно
1010.3 995.1
12 19.04 штиль 0 н/о н/о +24.1 +18.5 71 +29 +29 душно 1010.9 995.6
14 19.04 СВ 4 н/о н/о +26.9 +18.7 61 +32 +32 очень
душно
1011.4 996.1 +35.2
15 19.04 СВ 3 н/о н/о +26.2 +19.1 65 +31 +31 очень
душно
1011.6 996.3
17 19.04 В 3 н/о н/о +22.4 +19.0 81 +28 +28 душно 1010.9 995.6
18 19.04 ЮВ 3 н/о н/о +21.5 +18.9 85 +26 +26 душно 1010.8 995.5
20 19.04 ЮВ 3 н/о н/о +20.0 +18.3 90 +24 +24 комфорт 1010.6 995.3
21 19.04 ЮВ 3 н/о н/о +19.4 +18.2 93 +22 +22 комфорт 1011.1 995.8
23 19.04 ЮВ 3 н/о н/о +25.1 +19.7 72 +31 +31 очень
душно
1012.5 997.2
00 20.04 В 5 н/о н/о +28.6 +17.8 52 +33 +33 очень
душно
1012.7 997.4
02 20.04 ЮВ 8 н/о н/о +32.7 +15.2 35 +35 +35 душно 1012.1 996.8 +19.3
03 20.04 В 7 н/о н/о +33.4 +13.5 30 +34 +34 очень
жарко
1011.1 995.8
05 20.04 В 6 н/о н/о +34.7 +11.2 24 +34 +34 очень
жарко
1008.9 993.7
06 20.04 В 5 н/о н/о +33.6 +12.0 27 +34 +34 очень
жарко
1008.4 993.2
08 20.04 В 5 н/о н/о +33.3 +12.9 29 +34 +34 очень
жарко
1008.4 993.2
09 20.04 В 3 н/о н/о +30.6 +13.8 36 +32 +32 жарко 1008.7 993.5
11 20.04 СВ 1 н/о н/о +25.7 +15.7 54 +29 +29 душно 1009.7 994.5
12 20.04 штиль 0 н/о н/о +22.7 +17.2 71 +28 +28 душно 1009.8 994.6
14 20.04 штиль 0 н/о н/о +22.2 +16.9 72 +27 +27 душно 1010.3 995.1 +35.4
15 20.04 ЮВ 3 н/о н/о +20.7 +17.5 82 +25 +25 комфорт 1010.3 995.1
17 20.04 ЮВ 3 н/о н/о +20.8 +17.4 81 +25 +25 комфорт 1009.7 994.5
18 20.04 ЮВ 3 н/о н/о +21.1 +17.7 81 +25 +25 комфорт 1009.7 994.5
20 20.04 штиль 0 н/о н/о +20.2 +17.6 85 +23 +23 комфорт 1010.3 995.1
21 20.04 Ю 2 н/о н/о +19.5 +17.3 87 +22 +22 комфорт 1010.7 995.4
23 20.04 штиль 0 н/о н/о +24.7 +19.3 72 +30 +30 очень
душно
1011.7 996.4
00 21.04 СВ 3 н/о н/о +29.1 +18.8 54 +34 +34 очень
душно
1012.0 996.7
02 21.04 ЮВ 4 н/о н/о +32.2 +16.9 40 +36 +36 очень
душно
1011.5 996.2 +19.0
03 21.04 В 5 н/о н/о +33.8 +15.3 33 +36 +36 очень
душно
1010.7 995.4
05 21.04 В 6 н/о н/о +34.7 +13.0 27 +35 +35 очень
жарко
1008.7 993.5
06 21.04 ЮВ 6 н/о н/о +33.6 +14.1 31 +35 +35 душно 1008.1 992.9
08 21.04 В 5 н/о 1/0
[]
+33.6 +13.6 30 +35 +35 душно 1008.3 993.1
09 21.04 В 3 н/о н/о +30.5 +14.6 38 +33 +33 душно 1008.7 993.5

 

Местоположение метеостанции Тиндал (Северная территория, Австралия): широта -14.51 долгота 132.36 высота над уровнем моря 135 м.

В архиве по умолчанию представлена погода в Тиндале за последнюю неделю. Архивные данные за месяц целиком и за предыдущие месяцы, начиная с января 2011 года, Вы можете получить, выбрав интересующий диапазон дат из раскрывающегося списка и нажав кнопку "Ввод!".


*Определитесь, кто Вы:
робот инопланетянин человек

Внимание! Время в таблицах - всемирное. Для получения местного времени необходимо прибавить поправку, которая равна 9.5 ч.

Смотрите также архив погоды в соседних городах и на ближайших метеорологических станциях:

Погода на Базе ВВС Delamere Weapons Range (Северная территория, Австралия) (146 км)
Погода на Маяке Кейп-Дон (Северная территория, Австралия) (148 км)
Погода на Центральном плато Арнем (Северная территория, Австралия) (153 км)
Погода в Манбуллу Ксиро (Северная территория, Австралия) (175 км)
Погода в Джаберу (Северная территория, Австралия) (213 км)
Погода в Батчелоре (Северная территория, Австралия) (218 км)
Погода в Дейли Уотерс (Северная территория, Австралия) (222 км)
Погода в Булман Уимол (Северная территория, Австралия) (232 км)
Погода в Милд Пойнт (Северная территория, Австралия) (241 км)
Погода в Виктория-Ривер (Северная территория, Австралия) (255 км)

Пояснения к столбцам:

Ветер - указаны скорость ветра в м/с - средняя за 10 мин, порывы в срок и между сроками (в фигурных скобках) и направление, откуда дует ветер: С - северный, СВ - северо-восточный, В - восточный, ЮВ - юго-восточный, Ю - южный, ЮЗ - юго-западный, З - западный, СЗ - северо-западный.
Видимость - горизонтальная дальность видимости в метрах или километрах. При видимости от 1 до 10 км при отсутствии осадков обычно наблюдается дымка, при ухудшении видимости до 1 км и менее - туман. В сухую погоду видимость может ухудшаться дымом, пылью или мглою.
Явления - указаны атмосферные явления, наблюдавшиеся в срок или в последний час перед сроком; фигурными скобками обозначены явления, наблюдавшиеся между сроками (за 1-3 часа до срока); квадратными скобками обозначены град или гололедные отложения с указанием их диаметра в мм.
Облачность - указаны через наклонную черту общая и нижняя облачность в баллах и высота нижней границы облаков в метрах; квадратными скобками обозначены формы облаков: Ci - перистые, Cs - перисто-слоистые, Cc - перисто-кучевые, Ac - высококучевые, As - высокослоистые, Sc - слоисто-кучевые, Ns - слоисто-дождевые, Cu - кучевые, Cb - кучево-дождевые. Подробнее классификацию облаков см. в Атласе облаков (PDF).
T - Температура воздуха - температура, измеренная на высоте 2 м над землей.
Td - Температура точки росы - температура, при понижении до которой содержащийся в воздухе водяной пар достигнет насыщения.
f - Относительная влажность воздуха - влажноcть воздуха, измеренная на высоте 2 м над землей.
Te - Эффективная температура - температура, которую ощущает одетый по сезону человек в тени. Характеристика душности погоды. При расчете учитывается влияние влажности воздуха и скорости ветра на теплоощущения человека.
Tes - Эффективная температура на солнце - температура, которую ощущает человек, с поправкой на солнечный нагрев. Характеристика знойности погоды. Зависит от высоты солнца над горизонтом, облачности и скорости ветра. Ночью, в пасмурную погоду, а также при ветре 12 м/с и более поправка равна нулю.
P - Атмосферное давление - приведенное к уровню моря атмосферное давление.
Po - Атмосферное давление - измеренное на уровне метеостанции атмосферное давление.
Tmin - Минимальная температура - минимум температуры воздуха на высоте 2 м над землей.
Tmax - Максимальная температура - максимум температуры воздуха на высоте 2 м над землей.
R - Количество осадков - Количество выпавших осадков за период времени, мм. При наведении курсора мыши на число - период времени, за который выпало указанное количество осадков.
R24 - Количество осадков - Количество выпавших осадков за 24 часа, мм.
S - Снежный покров - Высота снежного покрова, см. При наведении курсора мыши на число - состояние снежного покрова и степень покрытия местности в баллах.